WetterOnline ( http://www.wetteronline.de )

Wetter aktuell Wolfsburg

Aktuelles Wetter: Braunschweig/Flughafen (88m)

6-stündlich | Neueste Meldungen
Ortszeit Temperatur Wetter
Fr, 22.03. 1:00 6.3° C wolkig
Do, 21.03. 19:00 10.5° C wolkenlos
Do, 21.03. 13:00 13.8° C wolkenlos
Do, 21.03. 7:00 8.4° C bedeckt
Do, 21.03. 1:00 8.0° C bedeckt
Mi, 20.03. 19:00 10.8° C bedeckt
Mi, 20.03. 13:00 12.0° C wolkig
Mi, 20.03. 7:00 1.7° C wolkenlos
Ortszeit Temperatur Wetter
Fr, 22.03. 2:30 5.4° C Nebel
Fr, 22.03. 2:20 5.4° C Nebel
Fr, 22.03. 2:10 4.9° C Nebel
Fr, 22.03. 2:00 5.0° C Nebel
Fr, 22.03. 1:50 5.0° C Nebel
Fr, 22.03. 1:40 5.2° C Nebel
Fr, 22.03. 1:30 5.2° C Nebel
Fr, 22.03. 1:00 6.3° C wolkig
Fr, 22.03. 0:30 6.1° C wolkig
Fr, 22.03. 0:00 6.4° C wolkig
Do, 21.03. 23:30 6.3° C Nebel
Ortszeit Relative Feuchte Sichtweite
Fr, 22.03. 1:00 100% 1.0 km
Do, 21.03. 19:00 84% 7 km
Do, 21.03. 13:00 66% 11 km
Do, 21.03. 7:00 81% 10 km
Do, 21.03. 1:00 80% 17 km
Mi, 20.03. 19:00 63% 45 km
Mi, 20.03. 13:00 55% 35 km
Mi, 20.03. 7:00 78% 50 km
Ortszeit Relative Feuchte Sichtweite
Fr, 22.03. 2:30 100% 0.7 km
Fr, 22.03. 2:20 100% -
Fr, 22.03. 2:10 99% -
Fr, 22.03. 2:00 99% <100 m
Fr, 22.03. 1:50 99% -
Fr, 22.03. 1:40 99% -
Fr, 22.03. 1:30 99% 100 m
Fr, 22.03. 1:00 100% 1.0 km
Fr, 22.03. 0:30 98% 1.8 km
Fr, 22.03. 0:00 99% 1.7 km
Do, 21.03. 23:30 99% 100 m
Ortszeit Niederschlagsmenge Niederschlagsart
Fr, 22.03. 1:00 0.0 l/m2 in 6 Std. -
Do, 21.03. 19:00 0.0 l/m2 in 12 Std. -
Do, 21.03. 13:00 0.0 l/m2 in 6 Std. -
Do, 21.03. 7:00 0.0 l/m2 in 12 Std. -
Do, 21.03. 1:00 0.0 l/m2 in 6 Std. -
Mi, 20.03. 19:00 0.0 l/m2 in 12 Std. -
Mi, 20.03. 13:00 0.0 l/m2 in 6 Std. -
Mi, 20.03. 7:00 0.0 l/m2 in 12 Std. -
Ortszeit Niederschlagsmenge Niederschlagsart
Fr, 22.03. 2:30 0.0 l/m2 in 1 Std. -
Fr, 22.03. 2:20 keine Meldung -
Fr, 22.03. 2:10 keine Meldung -
Fr, 22.03. 2:00 0.0 l/m2 in 1 Std. -
Fr, 22.03. 1:50 keine Meldung -
Fr, 22.03. 1:40 keine Meldung -
Fr, 22.03. 1:30 0.0 l/m2 in 1 Std. -
Fr, 22.03. 1:00 0.0 l/m2 in 1 Std. -
Fr, 22.03. 0:30 0.0 l/m2 in 1 Std. -
Fr, 22.03. 0:00 0.0 l/m2 in 1 Std. -
Do, 21.03. 23:30 0.0 l/m2 in 1 Std. -
Ortszeit Stärke Spitze Richtung
km/h Bft. km/h Grad Sektor
Fr, 22.03. 1:00 0 0 7 - -
Do, 21.03. 19:00 6 1 24 360° N
Do, 21.03. 13:00 13 3 28 290° W
Do, 21.03. 7:00 7 2 14 220° SW
Do, 21.03. 1:00 7 2 18 210° SW
Mi, 20.03. 19:00 7 2 29 240° SW
Mi, 20.03. 13:00 19 3 33 270° W
Mi, 20.03. 7:00 13 3 20 200° S
Ortszeit Stärke Spitze Richtung
km/h Bft. km/h Grad Sektor
Fr, 22.03. 2:30 2 1 4 140° SO
Fr, 22.03. 2:20 2 1 - 140° SO
Fr, 22.03. 2:10 0 0 - 100° O
Fr, 22.03. 2:00 0 0 4 - -
Fr, 22.03. 1:50 0 0 - 30° NO
Fr, 22.03. 1:40 0 0 - 40° NO
Fr, 22.03. 1:30 2 1 4 60° NO
Fr, 22.03. 1:00 0 0 4 - -
Fr, 22.03. 0:30 0 0 4 - -
Fr, 22.03. 0:00 0 0 4 - -
Do, 21.03. 23:30 0 0 4 - -
Ortszeit Untergrenze Bedeckung Gattung
total tief tief mittel hoch
Fr, 22.03. 1:00 8400 m 7/8 0/8 - - -
Do, 21.03. 19:00 - 0/8 0/8 - - -
Do, 21.03. 13:00 - 0/8 0/8 - - -
Do, 21.03. 7:00 510 m 8/8 8/8 - - -
Do, 21.03. 1:00 630 m 8/8 8/8 - - -
Mi, 20.03. 19:00 870 m 8/8 8/8 - - -
Mi, 20.03. 13:00 5400 m 8/8 3/8 - - -
Mi, 20.03. 7:00 - 0/8 0/8 - - -
Ortszeit Bedeckungsgrad in Achtel und Wolkenuntergrenze
Fr, 22.03. 2:30 1(<30m) 3(12000m)
Fr, 22.03. 2:20 1(<30m) 2(8400m) 3(12000m)
Fr, 22.03. 2:10 2(<30m) 4(8100m)
Fr, 22.03. 2:00 7(8400m) 7(8400m)
Fr, 22.03. 1:50 7(8400m)
Fr, 22.03. 1:40 7(8400m) 7(9000m)
Fr, 22.03. 1:30 7(8400m) 8(9000m) 8(9000m)
Fr, 22.03. 1:00 5(8400m) 7(9000m) 7(9000m)
Fr, 22.03. 0:30 6(9000m) 7(9000m)
Fr, 22.03. 0:00 6(9000m) 7(9000m)
Do, 21.03. 23:30 1(9000m)
Ortszeit Luftdruck NN (hPa) Tendenz (hPa in 3 Std.)
Fr, 22.03. 1:00 1034 0,0
Do, 21.03. 19:00 1033 + 0,1
Do, 21.03. 13:00 1034 - 0,6
Do, 21.03. 7:00 1034 + 0,6
Do, 21.03. 1:00 1035 + 0,7
Mi, 20.03. 19:00 1033 + 0,2
Mi, 20.03. 13:00 1033 0,0
Mi, 20.03. 7:00 1032 + 0,5
Ortszeit Luftdruck NN (hPa) Tendenz (hPa in 3 Std.)
Fr, 22.03. 2:30 1033 - 0,7
Fr, 22.03. 2:20 1033 keine Meldung
Fr, 22.03. 2:10 1033 keine Meldung
Fr, 22.03. 2:00 1033 - 0,5
Fr, 22.03. 1:50 1033 keine Meldung
Fr, 22.03. 1:40 1034 keine Meldung
Fr, 22.03. 1:30 1033 - 0,2
Fr, 22.03. 1:00 1034 0,0
Fr, 22.03. 0:30 1034 + 0,1
Fr, 22.03. 0:00 1034 + 0,4
Do, 21.03. 23:30 1034 + 0,3
Ortszeit Schneehöhe (cm)
Fr, 22.03. 1:00 0
Do, 21.03. 19:00 0
Do, 21.03. 13:00 0
Do, 21.03. 7:00 0
Do, 21.03. 1:00 0
Mi, 20.03. 19:00 0
Mi, 20.03. 13:00 0
Mi, 20.03. 7:00 0
Ortszeit Schneehöhe (cm)
Fr, 22.03. 2:30 0
Fr, 22.03. 2:20 0
Fr, 22.03. 2:10 0
Fr, 22.03. 2:00 0
Fr, 22.03. 1:50 0
Fr, 22.03. 1:40 0
Fr, 22.03. 1:30 0
Fr, 22.03. 1:00 0
Fr, 22.03. 0:30 0
Fr, 22.03. 0:00 0
Do, 21.03. 23:30 0
Link zu dieser Seite / Seite empfehlen

Das Wetter in ...